Location: Asheville, NC
(35.6000°N, 82.5500°W)
Time: 05:46:42
(UTC-04:00)

STARS - Pass Details

Date: 11 January 2018
Orbit: 624 x 642 km, 98.3° (Epoch: 20 April)

Event Time Altitude Azimuth Distance (km) Brightness Sun altitude
Rises 06:24:56 0° 189° (S) 2,890 ? -15.0°
Reaches altitude 10° 06:27:18 10° 199° (SSW) 1,987 ? -14.6°
Maximum altitude 06:31:09 31° 262° (W) 1,094 ? -13.8°
Enters shadow 06:33:51 17° 316° (NW) 1,601 ? -13.3°
